"2010-05-09 00:00:00",95500,2.811,8.82,10.03,1.374,10,103.9097,9.28,10.34,38.29,0,110.2,13.38,10.07,330.8
"2010-05-09 00:00:30",95501,2.835,5.771,5.654,1.087,9.15,103.9203,9.31,10.22,38.37,0,110.2,13.38,10.09,327.8
"2010-05-09 00:01:00",95502,2.36,5.102,12.07,1.128,9.18,103.9306,9.34,10.41,38.78,0,110.2,13.38,10.12,327.1
"2010-05-09 00:01:30",95503,2.719,16.88,8.19,1.485,9.57,103.9527,9.39,10.29,38.78,0,110.2,13.37,10.18,338.9
"2010-05-09 00:02:00",95504,3.018,13.41,7.677,1.376,10.16,103.9532,9.39,10.46,38.95,0,110.2,13.38,10.18,335.4
"2010-05-09 00:02:30",95505,4.017,16.67,7.121,1.208,11.91,103.9763,9.45,10.6,39.06,0,110.2,13.37,10.24,338.7
"2010-05-09 00:03:00",95506,3.075,18.43,4.002,0.872,9.51,103.9807,9.46,10.47,38.52,0,110.2,13.37,10.25,340.4
"2010-05-09 00:03:30",95507,3.209,17.69,3.402,0.848,8.3,103.9863,9.48,10.43,38.02,0,110.2,13.37,10.26,339.7
"2010-05-09 00:04:00",95508,3.886,19.98,8.16,1.326,10.24,104.0111,9.54,10.6,37.92,0,110.2,13.37,10.33,342.0
"2010-05-09 00:04:30",95509,2.642,10.29,5.327,0.512,8.18,104.0142,9.55,10.48,38.13,0,110.2,13.41,10.34,332.3
"2010-05-09 00:05:00",95510,3.876,10.71,10.08,1.177,10.43,104.0145,9.55,10.66,38.4,0,110.2,13.37,10.34,332.7
"2010-05-09 00:05:30",95511,2.387,11.37,8.09,0.458,8.36,104.0373,9.61,10.56,38.04,0,110.2,13.41,10.40,333.4
"2010-05-09 00:06:00",95512,2.601,12.43,4.727,0.52,8.48,104.044,9.63,10.57,38.34,0,110.2,13.41,10.41,334.4
"2010-05-09 00:06:30",95513,2.837,16.31,6.384,1.207,8.74,104.0486,9.64,10.62,38.75,0,110.2,13.38,10.42,338.3
"2010-05-09 00:07:00",95514,3.625,21.56,8.83,1.526,11.74,104.0637,9.68,10.86,39.38,0,110.2,13.38,10.46,343.6
"2010-05-09 00:07:30",95515,3.093,9.72,7.244,1.432,11.4,104.0726,9.7,10.88,39.78,0,110.2,13.38,10.49,331.7
"2010-05-09 00:08:00",95516,3.126,16.05,11.04,1.332,10.48,104.0796,9.72,10.79,39.53,0,110.2,13.38,10.50,338.0
"2010-05-09 00:08:30",95517,3.018,11.84,7.604,0.973,8.66,104.0814,9.72,10.86,39.7,0,110.2,13.38,10.51,333.8
"2010-05-09 00:09:00",95518,3.603,19.02,8.37,1.856,9.59,104.079,9.72,10.77,39.25,0,110.2,13.38,10.50,341.0
"2010-05-09 00:09:30",95519,2.992,8.21,9,1.202,9.67,104.0796,9.72,10.84,38.41,0,110.2,13.37,10.50,330.2
"2010-05-09 00:10:00",95520,2.487,2.885,5.278,0.288,8.3,104.0819,9.72,10.72,38.04,0,110.2,13.41,10.51,324.9
"2010-05-09 00:10:30",95521,2.446,10.93,8.7,1.05,9.25,104.0919,9.75,10.72,38.06,0,110.2,13.38,10.54,332.9
"2010-05-09 00:11:00",95522,3.339,11.39,7.743,0.859,9.59,104.098,9.76,10.8,37.54,0,110.2,13.38,10.55,333.4
"2010-05-09 00:11:30",95523,4.741,24.22,6.953,1.189,12.9,104.1035,9.78,11.05,37.34,0,110.2,13.38,10.56,346.2
"2010-05-09 00:12:00",95524,4.963,18.68,7.354,1.555,12.92,104.1057,9.78,10.99,37.11,0,110.2,13.38,10.57,340.7
"2010-05-09 00:12:30",95525,4.582,19.16,7.674,1.276,11.15,104.1064,9.79,10.91,36.88,0,110.2,13.38,10.57,341.2
"2010-05-09 00:13:00",95526,3.62,19.36,9.18,1.415,9.97,104.1038,9.78,10.91,36.89,0,110.2,13.37,10.57,341.4
"2010-05-09 00:13:30",95527,2.907,16.58,2.375,0.339,7.975,104.1076,9.79,10.78,36.78,0,110.2,13.41,10.58,338.6
"2010-05-09 00:14:00",95528,3.242,15.24,5.289,0.426,8.25,104.0994,9.77,10.76,36.91,0,110.2,13.41,10.55,337.2
"2010-05-09 00:14:30",95529,2.848,2.463,7.435,1.178,9.96,104.0967,9.76,10.86,37.52,0,110.2,13.38,10.55,324.5
"2010-05-09 00:15:00",95530,3.041,10.9,7.033,1.252,10.07,104.0922,9.75,10.83,38.42,0,110.2,13.38,10.54,332.9
"2010-05-09 00:15:30",95531,4.81,18.3,5.79,1.402,13.11,104.0899,9.74,10.95,38.08,0,110.2,13.38,10.53,340.3
"2010-05-09 00:16:00",95532,2.898,14.72,7.664,1.119,10.5,104.0925,9.75,10.92,37.6,0,110.2,13.38,10.54,336.7
"2010-05-09 00:16:30",95533,4.268,16.89,8.31,1.132,11.82,104.0952,9.76,10.93,37.47,0,110.2,13.37,10.54,338.9
"2010-05-09 00:17:00",95534,3.786,4.306,8.1,1.295,10.65,104.094,9.75,10.93,37.6,0,110.2,13.37,10.54,326.3
"2010-05-09 00:17:30",95535,2.817,355.6,5.462,0.817,8.02,104.0851,9.73,10.75,37.4,0,110.2,13.4,10.52,317.6
"2010-05-09 00:18:00",95536,2.699,359.4,6.252,0.472,8.21,104.0721,9.7,10.72,37.42,0,110.2,13.4,10.48,321.4
"2010-05-09 00:18:30",95537,3.426,353.3,4.257,0.657,8.64,104.0634,9.68,10.74,37.63,0,110.2,13.4,10.46,315.3
"2010-05-09 00:19:00",95538,3.953,7.564,10.6,1.371,11.87,104.0616,9.67,10.9,37.98,0,110.2,13.37,10.46,329.6
"2010-05-09 00:19:30",95539,4.248,3.188,9.11,1.398,12.09,104.0577,9.66,10.93,38.17,0,110.2,13.37,10.45,325.2
"2010-05-09 00:20:00",95540,5.859,351.9,6.907,1.291,11.38,104.0422,9.62,10.82,37.98,0,110.2,13.37,10.41,313.9
"2010-05-09 00:20:30",95541,5.276,345.9,6.91,1.27,9.97,104.0301,9.59,10.82,38.14,0,110.2,13.37,10.38,307.9
"2010-05-09 00:21:00",95542,6.214,349.6,7.205,1.15,11.42,104.0295,9.59,10.79,38.32,0,110.2,13.37,10.38,311.6
"2010-05-09 00:21:30",95543,4.254,341.7,2.491,0.198,8.3,104.0295,9.59,10.65,38.3,0,110.2,13.41,10.38,303.7
"2010-05-09 00:22:00",95544,5.132,345,5.077,1.028,9.14,104.0298,9.59,10.62,38.53,0,110.2,13.38,10.38,307.0
"2010-05-09 00:22:30",95545,6.252,348.8,6.444,1.437,11.26,104.0267,9.58,10.8,38.98,0,110.2,13.38,10.37,310.8
"2010-05-09 00:23:00",95546,6.219,351,6.725,1.3,12.05,104.0177,9.56,10.88,38.87,0,110.2,13.38,10.34,313.0
"2010-05-09 00:23:30",95547,7.399,349.9,5.363,1.068,12.47,104.0058,9.53,10.76,38.51,0,110.2,13.38,10.31,311.9
"2010-05-09 00:24:00",95548,5.798,338.8,6.394,0.74,9.6,103.9959,9.5,10.75,39,0,110.2,13.38,10.29,300.8
"2010-05-09 00:24:30",95549,6.927,350.5,5.551,1.292,11.35,103.9959,9.5,10.67,38.84,0,110.2,13.38,10.29,312.5
"2010-05-09 00:25:00",95550,5.562,344.5,5.506,0.919,9.79,103.9959,9.5,10.74,39.27,0,110.2,13.38,10.29,306.5
"2010-05-09 00:25:30",95551,5.935,344,5.953,0.939,10.12,103.9951,9.5,10.62,39.25,0,110.2,13.38,10.29,306.0
"2010-05-09 00:26:00",95552,6.995,348.6,5.767,1.158,12.68,103.9858,9.48,10.78,39.33,0,110.2,13.38,10.26,310.6
"2010-05-09 00:26:30",95553,6.577,343,7.48,1.334,11.27,103.9711,9.44,10.67,39.6,0,110.2,13.38,10.23,305.0
"2010-05-09 00:27:00",95554,6.393,343.8,8.14,1.405,11.1,103.9624,9.42,10.66,40,0,110.2,13.38,10.20,305.8
"2010-05-09 00:27:30",95555,5.772,341.9,7.261,1.143,10.04,103.9621,9.42,10.66,39.76,0,110.2,13.38,10.20,303.9
"2010-05-09 00:28:00",95556,5.659,346.8,4.609,1.067,9.44,103.9621,9.42,10.51,39.41,0,110.2,13.38,10.20,308.8
"2010-05-09 00:28:30",95557,6.603,347.8,6.612,1.358,11.4,103.9615,9.42,10.76,39.46,0,110.2,13.38,10.20,309.8
"2010-05-09 00:29:00",95558,5.954,346.2,5.471,1.271,10.17,103.955,9.4,10.55,39.35,0,110.2,13.38,10.18,308.2
"2010-05-09 00:29:30",95559,6.488,352.1,6.589,1.286,11.65,103.9432,9.37,10.6,39.67,0,110.2,13.38,10.15,314.1
"2010-05-09 00:30:00",95560,5.549,351.6,6.798,1.116,10.68,103.9353,9.35,10.62,39.33,0,110.2,13.38,10.13,313.6
"2010-05-09 00:30:30",95561,5.615,352.9,6.248,1.301,10.48,103.9285,9.33,10.53,38.97,0,110.2,13.38,10.12,314.9
"2010-05-09 00:31:00",95562,5.278,353,5.926,1.279,10.47,103.9282,9.33,10.58,38.93,0,110.2,13.38,10.12,315.0
"2010-05-09 00:31:30",95563,3.066,353.8,2.654,0.34,8.56,103.9282,9.33,10.41,38.81,0,110.2,13.42,10.12,315.8
"2010-05-09 00:32:00",95564,3.404,2.015,7.185,1.197,10.24,103.9282,9.33,10.55,39.07,0,110.2,13.38,10.12,324.0
"2010-05-09 00:32:30",95565,4.072,8.62,6.865,1.026,12.32,103.9279,9.33,10.61,39.25,0,110.2,13.38,10.11,330.6
"2010-05-09 00:33:00",95566,2.319,358.7,5.524,0.712,8.73,103.9268,9.33,10.42,39.13,0,110.2,13.38,10.11,320.7
"2010-05-09 00:33:30",95567,2.548,354.7,3.147,0.48,8.27,103.9248,9.32,10.39,39.19,0,110.2,13.41,10.11,316.7
"2010-05-09 00:34:00",95568,2.023,2.768,6.017,0.912,8.82,103.9248,9.32,10.38,39.23,0,110.2,13.38,10.11,324.8
"2010-05-09 00:34:30",95569,2.732,15.82,9.01,1.322,12.07,103.9248,9.32,10.6,39.44,0,110.2,13.38,10.11,337.8
"2010-05-09 00:35:00",95570,2.249,14.31,11.12,1.428,10.94,103.9274,9.33,10.52,39.34,0,110.2,13.38,10.11,336.3
"2010-05-09 00:35:30",95571,1.201,3.384,8.77,0.394,8.34,103.9276,9.33,10.44,39.57,0,110.2,13.41,10.11,325.4
"2010-05-09 00:36:00",95572,1.366,2.452,7.667,0.412,8.14,103.9282,9.33,10.37,40,0,110.2,13.41,10.12,324.5
"2010-05-09 00:36:30",95573,1.179,3.937,9.48,0.364,8.34,103.9282,9.33,10.38,39.83,0,110.2,13.42,10.12,325.9
"2010-05-09 00:37:00",95574,2.981,3.332,10.17,1.41,10.02,103.9282,9.33,10.42,39.77,0,110.2,13.38,10.12,325.3
"2010-05-09 00:37:30",95575,4.183,353.4,6.786,1.43,10.76,103.9296,9.33,10.52,40.49,0,110.2,13.38,10.12,315.4
"2010-05-09 00:38:00",95576,2.895,359,7.809,1.151,10.32,103.9344,9.35,10.56,40.54,0,110.2,13.38,10.13,321.0
"2010-05-09 00:38:30",95577,3.116,357.5,6.055,1.492,9.41,103.9423,9.37,10.39,39.96,0,110.2,13.39,10.15,319.5
"2010-05-09 00:39:00",95578,3.291,354.1,4.348,1.095,9.33,103.9542,9.4,10.54,40.23,0,110.2,13.39,10.18,316.1
"2010-05-09 00:39:30",95579,5.088,358.1,6.838,1.287,11.79,103.9604,9.41,10.63,40.4,0,110.2,13.38,10.20,320.1
"2010-05-09 00:40:00",95580,3.725,355.3,6.135,1.193,9.82,103.9621,9.42,10.47,40.85,0,110.2,13.38,10.20,317.3
"2010-05-09 00:40:30",95581,2.394,355.7,3.963,0.52,8.36,103.9621,9.42,10.44,40.15,0,110.2,13.42,10.20,317.7
"2010-05-09 00:41:00",95582,2.948,3.546,7.209,1.408,10.13,103.9621,9.42,10.58,39.84,0,110.2,13.39,10.20,325.5
"2010-05-09 00:41:30",95583,2.224,356.9,3.649,0.741,8.45,103.9621,9.42,10.49,39.61,0,110.2,13.39,10.20,318.9
"2010-05-09 00:42:00",95584,1.776,1.953,3.926,0.215,8.28,103.9621,9.42,10.44,39.58,0,110.2,13.42,10.20,324.0
"2010-05-09 00:42:30",95585,1.49,5.018,4.391,0.187,8.31,103.9683,9.43,10.46,39.64,0,110.2,13.42,10.22,327.0
"2010-05-09 00:43:00",95586,1.925,8.61,3.776,0.756,8.53,103.9846,9.47,10.46,39.68,0,110.2,13.39,10.26,330.6
"2010-05-09 00:43:30",95587,2.714,17.63,7.544,1.198,10.19,103.9917,9.49,10.64,39.9,0,110.2,13.39,10.28,339.6
"2010-05-09 00:44:00",95588,4.449,25.79,7.002,1.213,12.86,103.9959,9.5,10.76,39.97,0,110.2,13.39,10.29,347.8
"2010-05-09 00:44:30",95589,3.706,22.71,7.06,1.31,11.68,103.9959,9.5,10.77,39.91,0,110.2,13.38,10.29,344.7
"2010-05-09 00:45:00",95590,3.116,21.94,5.968,1.11,9.97,103.9959,9.5,10.55,39.64,0,110.2,13.38,10.29,343.9
"2010-05-09 00:45:30",95591,2.991,21.06,4.961,0.876,9.18,103.9965,9.51,10.65,39.72,0,110.2,13.38,10.29,343.1
"2010-05-09 00:46:00",95592,3.199,21.03,5.93,1.203,9.33,104.0086,9.54,10.55,39.56,0,110.2,13.38,10.32,343.0
"2010-05-09 00:46:30",95593,2.267,16.83,1.843,0.235,8.11,104.0216,9.57,10.54,39.5,0,110.2,13.42,10.35,338.8
"2010-05-09 00:47:00",95594,2.166,15.93,2.199,0.226,8.25,104.0289,9.59,10.54,39.49,0,110.2,13.42,10.37,337.9
"2010-05-09 00:47:30",95595,2.24,16.54,2.631,0.275,8.6,104.0298,9.59,10.57,39.46,0,110.2,13.42,10.38,338.5
"2010-05-09 00:48:00",95596,2.662,17.29,7.053,1.304,10.47,104.0298,9.59,10.7,39.49,0,110.2,13.39,10.38,339.3
"2010-05-09 00:48:30",95597,3.578,22.48,6.312,0.994,13.2,104.0354,9.6,10.92,39.66,0,110.2,13.38,10.39,344.5
"2010-05-09 00:49:00",95598,3.099,20.96,7.029,1.287,12.59,104.0566,9.66,10.8,39.47,0,110.2,13.38,10.44,343.0
"2010-05-09 00:49:30",95599,1.446,7.698,3.706,0.716,8.91,104.0637,9.68,10.63,39.2,0,110.2,13.38,10.46,329.7
"2010-05-09 00:50:00",95600,1.916,3.723,6.642,0.969,9.53,104.0637,9.68,10.8,39.25,0,110.2,13.38,10.46,325.7
"2010-05-09 00:50:30",95601,2.342,1.221,5.753,1.297,8.99,104.0637,9.68,10.68,39.06,0,110.2,13.38,10.46,323.2
"2010-05-09 00:51:00",95602,1.991,356.3,5.158,0.452,8.13,104.067,9.69,10.68,39.01,0,110.2,13.41,10.47,318.3
"2010-05-09 00:51:30",95603,3.233,347.9,2.827,0.326,8.14,104.0772,9.71,10.69,38.93,0,110.2,13.41,10.50,309.9
"2010-05-09 00:52:00",95604,4.978,345.9,5.755,1.375,10.3,104.0761,9.71,10.75,39.27,0,110.2,13.37,10.49,307.9
"2010-05-09 00:52:30",95605,4.315,342.8,8.99,1.275,10.61,104.0795,9.72,10.81,40.51,0,110.2,13.38,10.50,304.8
"2010-05-09 00:53:00",95606,5.596,348.2,5.353,1.111,13.36,104.0826,9.73,11,40.43,0,110.2,13.38,10.51,310.2
"2010-05-09 00:53:30",95607,5.067,344.2,6.056,1.063,12.98,104.0812,9.72,11.01,41.11,0,110.2,13.37,10.51,306.2
"2010-05-09 00:54:00",95608,4.334,345.8,5.728,1.194,10.55,104.0806,9.72,10.83,40.76,0,110.2,13.38,10.51,307.8
"2010-05-09 00:54:30",95609,3.79,343.9,1.135,0.074,8.06,104.0797,9.72,10.72,39.73,0,110.2,13.41,10.50,305.9
"2010-05-09 00:55:00",95610,3.718,340,0.982,0.073,8.03,104.078,9.71,10.73,39.39,0,110.2,13.41,10.50,302.0
"2010-05-09 00:55:30",95611,4.231,344,6.381,1.12,9.75,104.0704,9.69,10.86,39.45,0,110.2,13.38,10.48,306.0
"2010-05-09 00:56:00",95612,4.064,345.7,5.021,1.016,9.88,104.0645,9.68,10.83,39.32,0,110.2,13.38,10.46,307.7
"2010-05-09 00:56:30",95613,5.041,354.2,6.646,1.313,12.35,104.0637,9.68,10.96,39.42,0,110.2,13.38,10.46,316.2
"2010-05-09 00:57:00",95614,5.767,359.1,4.448,0.675,14.1,104.0637,9.68,11.06,39.58,0,110.2,13.38,10.46,321.1
"2010-05-09 00:57:30",95615,5.243,358.1,5.791,1.202,12.47,104.0634,9.68,10.95,39.7,0,110.2,13.38,10.46,320.1
"2010-05-09 00:58:00",95616,3.296,348.8,1.171,0.151,8.1,104.0515,9.65,10.71,39.61,0,110.2,13.42,10.43,310.8
"2010-05-09 00:58:30",95617,3.46,346.6,1.691,0.183,7.776,104.0304,9.59,10.7,39.61,0,110.2,13.42,10.38,308.6
"2010-05-09 00:59:00",95618,3.157,349,3.015,0.133,8.56,104.0298,9.59,10.76,39.81,0,110.2,13.42,10.38,311.0
"2010-05-09 00:59:30",95619,4.37,354,6.963,1.33,10.41,104.0298,9.59,10.73,39.96,0,110.2,13.38,10.38,316.0
"2010-05-09 01:00:00",95620,5.076,355.9,6.134,1.3,11.97,104.0202,9.57,10.85,40.18,0,110.2,13.38,10.35,317.9
"2010-05-09 01:00:30",95621,5.331,356,6.245,1.213,12.89,103.9968,9.51,10.86,40.14,0,110.2,13.38,10.29,318.0
"2010-05-09 01:01:00",95622,5.424,353.1,6.527,1.269,12.04,103.9959,9.5,10.84,40.45,0,110.2,13.38,10.29,315.1
"2010-05-09 01:01:30",95623,4.963,348.2,6.307,1.282,10.65,103.9945,9.5,10.77,40.63,0,110.2,13.38,10.29,310.2
"2010-05-09 01:02:00",95624,3.936,341.2,0.656,0.072,7.93,103.9832,9.47,10.59,40.5,0,110.2,13.38,10.26,303.2
"2010-05-09 01:02:30",95625,3.827,340.1,1.053,0.093,8.13,103.9635,9.42,10.59,40.73,0,110.2,13.42,10.21,302.1
"2010-05-09 01:03:00",95626,5.105,344,6.68,1.287,10.62,103.9621,9.42,10.67,40.91,0,110.2,13.38,10.20,306.0
"2010-05-09 01:03:30",95627,4.731,343.2,5.847,1.256,10.71,103.9615,9.42,10.73,40.96,0,110.2,13.39,10.20,305.2
"2010-05-09 01:04:00",95628,5.435,346.7,6.4,1.265,12.45,103.9494,9.38,10.77,41.22,0,110.2,13.39,10.17,308.7
"2010-05-09 01:04:30",95629,4.697,343.3,5.388,1.203,10.37,103.933,9.34,10.61,41.11,0,110.2,13.38,10.13,305.3
"2010-05-09 01:05:00",95630,4.098,342.7,4.641,0.78,9.25,103.9282,9.33,10.63,41.19,0,110.1,13.38,10.12,304.7
"2010-05-09 01:05:30",95631,4.784,346.3,6.374,1.241,9.62,103.9282,9.33,10.49,40.94,0,110.2,13.39,10.12,308.3
"2010-05-09 01:06:00",95632,4.173,342.6,1.263,0.076,8.36,103.922,9.31,10.51,40.74,0,110.2,13.42,10.10,304.6
"2010-05-09 01:06:30",95633,5.311,351,6.593,1.241,10.58,103.8989,9.26,10.49,40.35,0,110.2,13.38,10.04,313.0
"2010-05-09 01:07:00",95634,6.117,352.5,6.817,1.276,11.85,103.8943,9.24,10.62,40.34,0,110.2,13.38,10.03,314.5
"2010-05-09 01:07:30",95635,5.966,351.3,6.862,1.268,11.35,103.8946,9.24,10.61,40.31,0,110.2,13.38,10.03,313.3
"2010-05-09 01:08:00",95636,5.799,347.8,6.53,1.28,10.38,103.8924,9.24,10.43,40.06,0,110.1,13.38,10.02,309.8
"2010-05-09 01:08:30",95637,4.689,343.6,0.626,0.044,8.6,103.8822,9.21,10.52,40.17,0,110.1,13.42,10.00,305.6
"2010-05-09 01:09:00",95638,6.083,349.2,6.779,1.254,10.79,103.8707,9.18,10.43,40.06,0,110.1,13.38,9.97,311.2
"2010-05-09 01:09:30",95639,4.932,345.2,4.934,0.777,9.39,103.8628,9.16,10.51,39.93,0,110.1,13.38,9.95,307.2
"2010-05-09 01:10:00",95640,6.645,352.9,5.805,1.083,12.44,103.8637,9.17,10.46,39.95,0,110.1,13.38,9.95,314.9
"2010-05-09 01:10:30",95641,5.226,346.2,5.309,1.192,10.19,103.8635,9.17,10.43,39.94,0,110.1,13.38,9.95,308.2
"2010-05-09 01:11:00",95642,5.571,350.6,6.644,1.294,10.99,103.8495,9.13,10.52,40.07,0,110.1,13.38,9.91,312.6
"2010-05-09 01:11:30",95643,5.635,350.1,6.556,1.227,9.99,103.836,9.09,10.29,39.8,0,110.1,13.39,9.88,312.1
"2010-05-09 01:12:00",95644,4.751,346.7,3.456,0.664,8.94,103.8386,9.1,10.36,39.99,0,110.1,13.39,9.89,308.7
"2010-05-09 01:12:30",95645,4.756,346.9,4.361,0.666,9.17,103.8416,9.11,10.35,40.1,0,110.1,13.39,9.89,308.9
"2010-05-09 01:13:00",95646,6.776,357.5,5.588,0.912,12.57,103.8306,9.08,10.45,40.38,0,110.1,13.39,9.86,319.5
"2010-05-09 01:13:30",95647,6.245,357.1,5.818,1.247,12.19,103.8282,9.07,10.41,40.5,0,110.1,13.39,9.86,319.1
"2010-05-09 01:14:00",95648,4.675,350.1,4.964,0.789,9.83,103.8164,9.04,10.38,40.68,0,110.1,13.39,9.83,312.1
"2010-05-09 01:14:30",95649,4.034,350.6,2.644,0.49,8.69,103.8174,9.05,10.27,40.71,0,110.1,13.42,9.83,312.6
"2010-05-09 01:15:00",95650,4.036,5.611,9.47,1.23,10.8,103.8212,9.06,10.2,40.74,0,110.1,13.39,9.84,327.6
"2010-05-09 01:15:30",95651,2.744,1.688,3.472,0.344,8.82,103.8152,9.04,10.22,40.82,0,110.1,13.43,9.83,323.7
"2010-05-09 01:16:00",95652,2.489,4.763,3.101,0.241,8.81,103.7945,8.99,10.14,40.73,0,110.1,13.43,9.77,326.8
"2010-05-09 01:16:30",95653,4.098,16.29,8.46,1.28,12.45,103.7902,8.98,10.32,40.96,0,110.1,13.39,9.76,338.3
"2010-05-09 01:17:00",95654,4.947,26.63,5.745,0.67,13.67,103.7899,8.98,10.37,41.13,0,110.1,13.39,9.76,348.6
"2010-05-09 01:17:30",95655,4.423,24.16,6.598,1.353,11.74,103.7926,8.98,10.17,40.96,0,110.1,13.39,9.77,346.2
"2010-05-09 01:18:00",95656,2.717,15.05,3.141,0.389,8.41,103.7932,8.99,10.05,40.9,0,110.1,13.43,9.77,337.0
"2010-05-09 01:18:30",95657,4.112,23.81,7.65,1.507,10.5,103.7934,8.99,10.13,41.06,0,110.1,13.39,9.77,345.8
"2010-05-09 01:19:00",95658,3.239,18.68,4.755,0.765,9.51,103.7923,8.98,10.16,41.23,0,110.1,13.4,9.77,340.7
"2010-05-09 01:19:30",95659,4.101,21.83,7.464,1.409,10.22,103.7858,8.97,10.03,41.13,0,110.1,13.39,9.75,343.8
"2010-05-09 01:20:00",95660,2.595,13.83,2.864,0.36,8.98,103.7853,8.96,10.02,41.22,0,110.2,13.43,9.75,335.8
"2010-05-09 01:20:30",95661,3.972,20.33,6.222,1.256,12.4,103.7754,8.94,10.28,41.6,0,110.1,13.4,9.72,342.3
"2010-05-09 01:21:00",95662,4.168,20.13,6.057,1.204,12.75,103.7683,8.92,10.29,41.54,0,110.1,13.4,9.70,342.1
"2010-05-09 01:21:30",95663,3.247,15.08,6.891,1.251,10.5,103.7627,8.91,10.14,41.4,0,110.1,13.4,9.69,337.1
"2010-05-09 01:22:00",95664,2.39,5.779,4.442,0.163,8.2,103.7602,8.9,9.98,41.04,0,110.1,13.43,9.68,327.8
"2010-05-09 01:22:30",95665,3.038,12,6.982,1.25,9.43,103.7602,8.9,9.99,40.84,0,110.1,13.4,9.68,334.0
"2010-05-09 01:23:00",95666,2.576,11.71,5.321,0.952,9.88,103.7602,8.9,10.14,40.87,0,110.1,13.4,9.68,333.7
"2010-05-09 01:23:30",95667,3.179,13.26,6.795,1.109,10.12,103.7602,8.9,9.96,40.59,0,110.1,13.4,9.68,335.3
"2010-05-09 01:24:00",95668,3.434,15.7,6.39,1.258,11.02,103.7602,8.9,10.1,40.66,0,110.1,13.4,9.68,337.7
"2010-05-09 01:24:30",95669,3.628,18.43,5.63,1.27,10.78,103.7602,8.9,10.09,40.56,0,110.1,13.4,9.68,340.4
"2010-05-09 01:25:00",95670,4.174,22.34,6.524,1.155,11.59,103.7602,8.9,10.19,40.8,0,110.1,13.4,9.68,344.3
"2010-05-09 01:25:30",95671,4.735,26,6.504,1.23,11.88,103.7602,8.9,10.13,40.77,0,110.1,13.4,9.68,348.0
"2010-05-09 01:26:00",95672,3.229,17.98,1.352,0.489,8.41,103.7588,8.9,9.93,40.62,0,110.1,13.4,9.68,340.0
"2010-05-09 01:26:30",95673,3.335,18.75,1.513,0.561,8.58,103.7537,8.88,9.95,40.65,0,110.1,13.39,9.67,340.8
"2010-05-09 01:27:00",95674,4.381,27.35,6.409,1.348,11.21,103.75,8.87,10.1,40.93,0,110.1,13.4,9.66,349.4
"2010-05-09 01:27:30",95675,3.935,32.35,4.926,1.169,11.35,103.7429,8.86,10.15,41.42,0,110.1,13.4,9.64,354.4
"2010-05-09 01:28:00",95676,4.241,37.21,6.459,1.423,11.15,103.7311,8.83,10.02,41.44,0,110.1,13.4,9.61,359.2
"2010-05-09 01:28:30",95677,4.255,40.79,5.53,1.128,10.88,103.7268,8.82,9.99,41.45,0,110.1,13.4,9.60,2.8
"2010-05-09 01:29:00",95678,4.369,47.41,6.102,1.234,10.25,103.7263,8.81,10.02,41.57,0,110.1,13.4,9.60,9.4
"2010-05-09 01:29:30",95679,4.824,56,7.881,1.335,11.49,103.7263,8.81,10.05,41.7,0,110.1,13.4,9.60,18.0
"2010-05-09 01:30:00",95680,3.81,53.16,0.924,0.471,9.51,103.7263,8.81,9.88,41.62,0,110.1,13.4,9.60,15.2
"2010-05-09 01:30:30",95681,4.892,60.47,7.228,1.319,11.59,103.7263,8.81,9.9,41.65,0,110.1,13.41,9.60,22.5
"2010-05-09 01:31:00",95682,4.99,62.97,6.909,1.316,12.3,103.7263,8.81,10.11,41.88,0,110.1,13.41,9.60,25.0
"2010-05-09 01:31:30",95683,4.77,64.42,7.196,1.327,11.86,103.7263,8.81,10.03,41.82,0,110.1,13.41,9.60,26.4
"2010-05-09 01:32:00",95684,4.697,65.94,6.747,1.273,11.87,103.7263,8.81,10.02,41.74,0,110.1,13.41,9.60,27.9
"2010-05-09 01:32:30",95685,3.949,59.35,5.582,1.053,11.01,103.7263,8.81,10.08,41.81,0,110.1,13.41,9.60,21.3
"2010-05-09 01:33:00",95686,4.169,55.12,6.869,1.364,10.75,103.7268,8.82,9.92,41.61,0,110.1,13.41,9.60,17.1
"2010-05-09 01:33:30",95687,4.023,51.98,6.242,1.223,11.34,103.7319,8.83,10.04,41.74,0,110.1,13.41,9.61,14.0
"2010-05-09 01:34:00",95688,4.239,49.39,6.924,1.302,11.14,103.7381,8.84,9.92,41.61,0,110.1,13.41,9.63,11.4
"2010-05-09 01:34:30",95689,3.453,45.84,5.421,1.076,10.65,103.7441,8.86,10.07,41.62,0,110.1,13.41,9.64,7.8
"2010-05-09 01:35:00",95690,3.478,45.94,4.509,1.184,10.24,103.7455,8.86,10.04,41.54,0,110.1,13.41,9.65,7.9
"2010-05-09 01:35:30",95691,4.276,52.85,6.63,1.335,12.31,103.7446,8.86,10.11,41.61,0,110.1,13.41,9.64,14.8
"2010-05-09 01:36:00",95692,3.782,49.89,7.097,1.289,10.48,103.7449,8.86,9.94,41.4,0,110.1,13.41,9.64,11.9
"2010-05-09 01:36:30",95693,2.836,41.15,1.262,0.048,8.75,103.7401,8.85,9.97,41.36,0,110.1,13.44,9.63,3.2
"2010-05-09 01:37:00",95694,4.16,45.72,6.83,1.364,11.11,103.7328,8.83,10.06,41.44,0,110.1,13.41,9.61,7.7
"2010-05-09 01:37:30",95695,3.385,37.89,3.491,0.678,9.16,103.7268,8.82,9.92,41.17,0,110.1,13.41,9.60,359.9
"2010-05-09 01:38:00",95696,3.416,35.56,5.698,1.209,9.62,103.7263,8.81,9.94,41.02,0,110.1,13.41,9.60,357.6
"2010-05-09 01:38:30",95697,4.195,39.49,6.353,1.274,12.51,103.7263,8.81,10.16,41.09,0,110.1,13.41,9.60,1.5
"2010-05-09 01:39:00",95698,3.31,33.44,6.423,1.194,10.56,103.7263,8.81,9.99,40.77,0,110.1,13.4,9.60,355.4
"2010-05-09 01:39:30",95699,3.578,32.82,6.399,1.281,10.87,103.7257,8.81,10.05,40.68,0,110.1,13.4,9.60,354.8
"2010-05-09 01:40:00",95700,2.966,28.73,3.94,0.862,8.85,103.7105,8.77,9.86,40.41,0,110.1,13.41,9.56,350.7
"2010-05-09 01:40:30",95701,3.032,27.81,4.549,0.837,8.93,103.6947,8.73,9.85,40.42,0,110.1,13.4,9.52,349.8
"2010-05-09 01:41:00",95702,3.269,29.47,5.286,1.145,9.5,103.6933,8.73,9.85,40.52,0,110.1,13.4,9.51,351.5
"2010-05-09 01:41:30",95703,4.117,34.64,6.394,1.312,12.29,103.6927,8.73,10.08,40.79,0,110.1,13.4,9.51,356.6
"2010-05-09 01:42:00",95704,4.199,34.03,6.782,1.272,11.79,103.6945,8.73,9.92,40.75,0,110.1,13.4,9.52,356.0
"2010-05-09 01:42:30",95705,4.511,36.8,6.771,1.292,12.31,103.6939,8.73,9.97,40.96,0,110.1,13.4,9.51,358.8
"2010-05-09 01:43:00",95706,3.396,30.96,5.954,1.228,10.19,103.6849,8.71,9.87,41,0,110.1,13.4,9.49,353.0
"2010-05-09 01:43:30",95707,3.25,32.74,6.54,1.227,10.54,103.6652,8.66,9.92,41.19,0,110.1,13.41,9.44,354.7
"2010-05-09 01:44:00",95708,2.325,30.17,1.754,0.245,8.49,103.6656,8.66,9.77,41.27,0,110.1,13.44,9.44,352.2
"2010-05-09 01:44:30",95709,2.436,36.1,3.197,0.246,8.72,103.6673,8.66,9.78,41.43,0,110.1,13.44,9.45,358.1
"2010-05-09 01:45:00",95710,2.765,40.44,4.503,0.271,9.63,103.6705,8.67,9.86,41.59,0,110.1,13.45,9.45,2.4
"2010-05-09 01:45:30",95711,3.926,47.56,6.732,1.346,11.64,103.6712,8.67,9.81,41.55,0,110.1,13.41,9.46,9.6
"2010-05-09 01:46:00",95712,4.134,48.86,5.23,1.27,13.4,103.6636,8.65,9.97,41.74,0,110.1,13.41,9.44,10.9
"2010-05-09 01:46:30",95713,4.16,53.48,4.658,1.28,12.58,103.6575,8.64,9.92,41.74,0,110.1,13.41,9.42,15.5
"2010-05-09 01:47:00",95714,3.807,52.63,4.451,1.223,11.53,103.6496,8.62,9.89,41.68,0,110.1,13.41,9.40,14.6
"2010-05-09 01:47:30",95715,3.237,46.49,4.934,0.972,10.13,103.6446,8.61,9.81,41.69,0,110.1,13.41,9.39,8.5
"2010-05-09 01:48:00",95716,2.334,30,3.954,0.565,9.03,103.6469,8.61,9.69,41.63,0,110.1,13.41,9.39,352.0
"2010-05-09 01:48:30",95717,3.009,21.32,2.553,0.29,8.75,103.6498,8.62,9.68,41.58,0,110.1,13.45,9.40,343.3
"2010-05-09 01:49:00",95718,3.433,18.3,1.818,0.56,9.01,103.6527,8.63,9.68,41.44,0,110.1,13.42,9.41,340.3
"2010-05-09 01:49:30",95719,4.939,25.47,6.818,1.184,12.68,103.6536,8.63,9.88,41.49,0,110.1,13.42,9.41,347.5
"2010-05-09 01:50:00",95720,4.781,26.23,6.299,1.141,13.25,103.6557,8.63,9.92,41.33,0,110.1,13.42,9.42,348.2
"2010-05-09 01:50:30",95721,4.306,23.32,6.783,1.362,12.13,103.656,8.63,9.88,41.25,0,110.1,13.42,9.42,345.3
"2010-05-09 01:51:00",95722,3.48,16,6.65,1.235,10.35,103.6586,8.64,9.79,41.16,0,110.1,13.41,9.42,338.0